Weather History for KTMB - November, 2012

Change the Weather History Date:

Wednesday, November 7, 2012

  Actual Average (KMIA) Record (KMIA)
Temperature  
Mean Temperature 68 °F 76 °F  
Max Temperature 75 °F 83 °F 88 °F (2013)
Min Temperature 60 °F 69 °F 53 °F (1907)
Degree Days  
Heating Degree Days 0 0  
Month to date heating degree days 0  
Since 1 July heating degree days 0  
Cooling Degree Days 4 11  
Month to date cooling degree days 82  
Year to date cooling degree days 4154  
Growing Degree Days 18 (Base 50)    
Moisture  
Dew Point 56 °F    
Average Humidity 66    
Maximum Humidity 93    
Minimum Humidity 52    
Precipitation  
Precipitation 0.00 in 0.13 in 2.44 in (1982)
Month to date precipitation 0.95  
Year to date precipitation 57.54  
Snow  
Snow 0.00 in - - ()
Month to date snowfall  
Since 1 July snowfall  
Since 1 September snowfall  
Snow Depth -    
Sea Level Pressure  
Sea Level Pressure 29.92 in    
Wind  
Wind Speed 8 mph (NW)    
Max Wind Speed 16 mph    
Max Gust Speed 22 mph    
Visibility 10 miles    
Events      
T = Trace of Precipitation, MM = Missing Value Source: NWS Daily Summary

Daily Weather History Graph

Daily Weather History Graph

Search for Another Location

Airport or City:

Trip Planner

Search our weather history database for the weather conditions in past years. The results will help you decide how hot, cold, wet, or windy it might be!

Date:

Astronomy

Nov. 07, 2012 Rise Set
Actual Time 6:34 AM EST 5:36 PM EST
Civil Twilight 6:10 AM EST 6:00 PM EST
Nautical Twilight 5:42 AM EST 6:27 PM EST
Astronomical Twilight 5:15 AM EST 6:54 PM EST
Moon 12:07 AM EST (11/7) 1:07 PM EST (11/7)
Length of Visible Light 11h 50m
Length of Day
11h 02m
Last Quarter, 43% of the Moon is Illuminated
Nov 7
Last Quarter
Nov 13
New
Nov 20
First Quarter
Nov 28
Full
Dec 6
Last Quarter

Hourly Weather History & Observations

Time (EST) Temp. Dew Point Humidity Pressure Visibility Wind Dir Wind Speed Gust Speed Precip Events Conditions
12:53 AM 69.1 °F 66.9 °F 93% 29.87 in 10.0 mi West 4.6 mph - N/A   Overcast
1:53 AM 70.0 °F 66.9 °F 90% 29.86 in 10.0 mi WSW 4.6 mph - N/A   Overcast
2:53 AM 69.1 °F 66.9 °F 93% 29.86 in 10.0 mi WNW 4.6 mph - N/A   Overcast
3:53 AM 69.1 °F 64.9 °F 87% 29.86 in 10.0 mi NW 8.1 mph - N/A   Mostly Cloudy
4:53 AM 66.9 °F 61.0 °F 81% 29.88 in 10.0 mi NNW 8.1 mph - N/A   Partly Cloudy
5:53 AM 64.9 °F 57.0 °F 75% 29.90 in 10.0 mi NNW 8.1 mph - N/A   Mostly Cloudy
6:53 AM 64.9 °F 55.9 °F 73% 29.91 in 10.0 mi North 5.8 mph - N/A   Mostly Cloudy
7:53 AM 66.9 °F 55.9 °F 68% 29.94 in 10.0 mi NNW 6.9 mph - N/A   Mostly Cloudy
8:53 AM 70.0 °F 55.0 °F 59% 29.96 in 10.0 mi NNW 12.7 mph - N/A   Scattered Clouds
9:53 AM 70.0 °F 55.9 °F 61% 29.96 in 10.0 mi NNW 15.0 mph - N/A   Clear
10:53 AM 72.0 °F 55.9 °F 57% 29.96 in 10.0 mi NW 12.7 mph - N/A   Clear
11:53 AM 72.0 °F 55.9 °F 57% 29.93 in 10.0 mi NW 12.7 mph - N/A   Clear
12:53 PM 73.9 °F 55.9 °F 53% 29.90 in 10.0 mi NW 10.4 mph - N/A   Clear
1:53 PM 75.9 °F 57.0 °F 52% 29.88 in 10.0 mi NNW 13.8 mph 21.9 mph N/A   Scattered Clouds
2:53 PM 75.0 °F 57.0 °F 53% 29.88 in 10.0 mi NNW 16.1 mph 21.9 mph N/A   Scattered Clouds
3:53 PM 73.9 °F 55.9 °F 53% 29.87 in 10.0 mi WNW 13.8 mph - N/A   Partly Cloudy
4:53 PM 72.0 °F 55.0 °F 55% 29.88 in 10.0 mi NW 11.5 mph - N/A   Clear
5:53 PM 69.8 °F 51.8 °F 53% 29.90 in 10.0 mi WNW 11.5 mph - N/A   Clear
6:53 PM 66.9 °F 54.0 °F 63% 29.93 in 10.0 mi WNW 10.4 mph - N/A   Clear
7:53 PM 64.9 °F 53.1 °F 65% 29.95 in 10.0 mi NW 9.2 mph - N/A   Clear
8:53 PM 63.0 °F 51.1 °F 65% 29.98 in 10.0 mi NW 9.2 mph - N/A   Clear
9:53 PM 63.0 °F 48.9 °F 60% 29.99 in 10.0 mi NNW 12.7 mph - N/A   Clear
10:53 PM 62.1 °F 48.9 °F 62% 30.00 in 10.0 mi NNW 10.4 mph - N/A   Clear
11:53 PM 60.1 °F 48.9 °F 67% 30.01 in 10.0 mi NNW 6.9 mph - N/A   Clear